| time (UTC) | temp C | wind direction | speed KPH | gust KPH | rain 1hr cm | rain 24hr cm | rain mn cm | humidity % | barometer mb |
| 20260505200517 | 32 | 158 | 3.2 | 16.1 | 0.00 | 0.00 | 0.00 | 57 | 1004.7 |
| 20260505194517 | 31 | 180 | 3.2 | 19.3 | 0.00 | 0.00 | 0.00 | 60 | 1004.8 |
| 20260505193517 | 30 | 203 | 3.2 | 14.5 | 0.00 | 0.00 | 0.00 | 61 | 1004.8 |
| 20260505192517 | 31 | 180 | 6.4 | 16.1 | 0.00 | 0.00 | 0.00 | 63 | 1004.9 |
| 20260505191537 | 30 | 180 | 6.4 | 22.5 | 0.00 | 0.00 | 0.00 | 61 | 1004.9 |
| 20260505190517 | 30 | 158 | 4.8 | 14.5 | 0.00 | 0.00 | 0.00 | 64 | 1005.0 |
| 20260505185517 | 30 | 180 | 3.2 | 11.3 | 0.00 | 0.00 | 0.00 | 65 | 1005.1 |
| 20260505184517 | 29 | 203 | 3.2 | 9.7 | 0.00 | 0.00 | 0.00 | 65 | 1005.3 |
| 20260505183517 | 29 | 180 | 6.4 | 17.7 | 0.00 | 0.00 | 0.00 | 67 | 1005.4 |
| 20260505182537 | 28 | 180 | 4.8 | 20.9 | 0.00 | 0.00 | 0.00 | 69 | 1005.3 |
| 20260505181537 | 28 | 180 | 4.8 | 14.5 | 0.00 | 0.00 | 0.00 | 68 | 1005.4 |
| 20260505180637 | 28 | 158 | 8.0 | 17.7 | 0.00 | 0.00 | 0.00 | 71 | 1005.4 |
| 20260505051516 | 22 | 158 | 17.7 | 32.2 | 0.00 | 0.00 | 0.00 | 78 | 1005.9 |
| 20260505050516 | 23 | 135 | 16.1 | 32.2 | 0.00 | 0.00 | 0.00 | 78 | 1006.0 |
| 20260505041516 | 23 | 135 | 19.3 | 37.0 | 0.00 | 0.00 | 0.00 | 76 | 1005.9 |
| 20260505040515 | 23 | 158 | 17.7 | 30.6 | 0.00 | 0.00 | 0.00 | 76 | 1006.0 |
| 20260505035515 | 23 | 135 | 17.7 | 35.4 | 0.00 | 0.00 | 0.00 | 76 | 1006.0 |
| 20260505034515 | 23 | 135 | 20.9 | 33.8 | 0.00 | 0.00 | 0.00 | 75 | 1006.1 |
| 20260505033516 | 23 | 158 | 17.7 | 29.0 | 0.00 | 0.00 | 0.00 | 75 | 1005.9 |
| 20260505032536 | 23 | 135 | 20.9 | 30.6 | 0.00 | 0.00 | 0.00 | 75 | 1005.8 |
| 20260505031516 | 23 | 135 | 20.9 | 30.6 | 0.00 | 0.00 | 0.00 | 75 | 1005.9 |
| 20260505030516 | 23 | 135 | 16.1 | 29.0 | 0.00 | 0.00 | 0.00 | 75 | 1005.8 |
| 20260505025515 | 23 | 135 | 17.7 | 27.4 | 0.00 | 0.00 | 0.00 | 75 | 1006.0 |
| 20260505024516 | 23 | 135 | 12.9 | 32.2 | 0.00 | 0.00 | 0.00 | 75 | 1006.2 |
| 20260505023516 | 23 | 135 | 19.3 | 33.8 | 0.00 | 0.00 | 0.00 | 75 | 1005.9 |
| 20260505022515 | 23 | 135 | 20.9 | 33.8 | 0.00 | 0.00 | 0.00 | 74 | 1005.7 |
| 20260505021515 | 23 | 135 | 17.7 | 30.6 | 0.00 | 0.00 | 0.00 | 75 | 1005.7 |
| 20260505020516 | 23 | 135 | 17.7 | 30.6 | 0.00 | 0.00 | 0.00 | 74 | 1005.5 |
| 20260505015536 | 23 | 135 | 17.7 | 27.4 | 0.00 | 0.00 | 0.00 | 74 | 1005.6 |
| 20260505014516 | 23 | 135 | 19.3 | 33.8 | 0.00 | 0.00 | 0.00 | 74 | 1005.5 |
| 20260505013516 | 24 | 135 | 14.5 | 24.1 | 0.00 | 0.00 | 0.00 | 74 | 1005.5 |
| 20260505012515 | 24 | 135 | 14.5 | 22.5 | 0.00 | 0.00 | 0.00 | 73 | 1005.6 |
| 20260505011516 | 24 | 135 | 14.5 | 20.9 | 0.00 | 0.00 | 0.00 | 72 | 1005.5 |
| 20260505010516 | 24 | 135 | 16.1 | 30.6 | 0.00 | 0.00 | 0.00 | 72 | 1005.4 |
| 20260505005516 | 24 | 135 | 16.1 | 29.0 | 0.00 | 0.00 | 0.00 | 72 | 1005.6 |
| 20260505004535 | 25 | 135 | 16.1 | 24.1 | 0.00 | 0.00 | 0.00 | 71 | 1005.6 |
| 20260505003515 | 25 | 135 | 19.3 | 30.6 | 0.00 | 0.00 | 0.00 | 70 | 1005.7 |
| 20260505002515 | 25 | 135 | 17.7 | 27.4 | 0.00 | 0.00 | 0.00 | 70 | 1005.8 |
| 20260505001516 | 25 | 135 | 19.3 | 29.0 | 0.00 | 0.00 | 0.00 | 69 | 1006.0 |
| 20260505000515 | 25 | 135 | 20.9 | 33.8 | 0.00 | 0.00 | 0.00 | 69 | 1005.9 |
| 20260504235516 | 25 | 135 | 20.9 | 35.4 | 0.00 | 0.00 | 0.00 | 68 | 1006.0 |
| 20260504234515 | 25 | 135 | 16.1 | 27.4 | 0.00 | 0.00 | 0.00 | 68 | 1006.2 |
| 20260504233515 | 26 | 135 | 16.1 | 22.5 | 0.00 | 0.00 | 0.00 | 67 | 1006.2 |
| 20260504232515 | 26 | 135 | 19.3 | 33.8 | 0.00 | 0.00 | 0.00 | 67 | 1006.2 |
| 20260504231515 | 26 | 135 | 22.5 | 35.4 | 0.00 | 0.00 | 0.00 | 66 | 1006.2 |
| 20260504230516 | 26 | 135 | 20.9 | 37.0 | 0.00 | 0.00 | 0.00 | 66 | 1006.4 |
| 20260504225515 | 26 | 135 | 20.9 | 33.8 | 0.00 | 0.00 | 0.00 | 66 | 1006.5 |
| 20260504224515 | 26 | 135 | 17.7 | 29.0 | 0.00 | 0.00 | 0.00 | 64 | 1006.5 |
| 20260504223516 | 26 | 135 | 17.7 | 32.2 | 0.00 | 0.00 | 0.00 | 63 | 1006.5 |
| 20260504222515 | 26 | 135 | 17.7 | 29.0 | 0.00 | 0.00 | 0.00 | 63 | 1006.6 |
| 20260504221535 | 26 | 158 | 17.7 | 33.8 | 0.00 | 0.00 | 0.00 | 63 | 1006.9 |
| 20260504220535 | 26 | 135 | 19.3 | 32.2 | 0.00 | 0.00 | 0.00 | 62 | 1006.8 |
| 20260504215536 | 26 | 158 | 16.1 | 30.6 | 0.00 | 0.00 | 0.00 | 62 | 1006.9 |
| 20260504214556 | 27 | 135 | 19.3 | 35.4 | 0.00 | 0.00 | 0.00 | 61 | 1007.0 |
| 20260504213515 | 27 | 135 | 17.7 | 35.4 | 0.00 | 0.00 | 0.00 | 61 | 1007.1 |
| 20260504212516 | 27 | 135 | 20.9 | 32.2 | 0.00 | 0.00 | 0.00 | 60 | 1007.3 |
| 20260504211535 | 27 | 135 | 22.5 | 43.5 | 0.00 | 0.00 | 0.00 | 60 | 1007.4 |
| 20260504210515 | 27 | 158 | 14.5 | 29.0 | 0.00 | 0.00 | 0.00 | 61 | 1007.6 |
| 20260504205535 | 27 | 135 | 19.3 | 33.8 | 0.00 | 0.00 | 0.00 | 59 | 1007.8 |
| 20260504204555 | 27 | 135 | 19.3 | 32.2 | 0.00 | 0.00 | 0.00 | 61 | 1007.9 |
| 20260504203515 | 27 | 135 | 19.3 | 35.4 | 0.00 | 0.00 | 0.00 | 60 | 1008.3 |
| 20260504202515 | 27 | 135 | 19.3 | 35.4 | 0.00 | 0.00 | 0.00 | 61 | 1008.4 |
| 20260504201515 | 27 | 158 | 12.9 | 35.4 | 0.00 | 0.00 | 0.00 | 59 | 1008.6 |